[[{"header":{"parameterUnit":"m.s-1","parameterCategory":1,"la1":30.2991,"la2":30.254,"lo1":-89.0895,"lo2":-89.0444,"dy":0.0017,"dx":0.0017,"nx":28,"ny":28,"refTime":"2025-03-12T03:00:00:Z","depth":0,"parameterNumber":2,"parameterNumberName":"U-component_of_WINDS"},"data":[0,0,0,0,0,0,0,0,0,0,0,0,0,0,0,0,0,0,0,0,0,0,0,0,0,0,0,0,0,0,0,0,0,0,0,0,0,0,0,0,0,0,0,0,0,0,0,0,0,0,0,0,0,0,0,0,0,0,-0.0667,-0.0667,0,-0.0679,-0.0679,-0.0679,-0.063,-0.0628,-0.0627,-0.0625,-0.0638,-0.064,-0.0641,0,0,0,0,0,0,0,0,0,0,0,0,0,-0.0601,-0.0603,-0.0667,-0.0667,-0.0667,-0.0679,-0.0679,-0.0679,-0.063,-0.0628,-0.0626,-0.0625,-0.0637,-0.0639,-0.0641,0,0,0,0,0,0,0,0,0,0,0,0,0,-0.0623,-0.0603,-0.0667,-0.0644,-0.0642,-0.0679,-0.0679,-0.0679,-0.063,-0.0628,-0.0626,-0.0624,-0.0637,-0.0639,-0.0642,-0.0701,0,0,-0.065,-0.0651,0,0,0,0,0,0,0,0,-0.0622,-0.0625,-0.0647,-0.0646,-0.0644,-0.065,-0.066,-0.0686,-0.0631,-0.0635,-0.0625,-0.0623,-0.0644,-0.0646,-0.0653,-0.0702,-0.0702,-0.065,-0.0651,-0.0652,-0.0653,0,0,0,0,0,0,0,-0.062,-0.0625,-0.0671,-0.0648,-0.0645,-0.0633,-0.0634,-0.0665,-0.0651,-0.0634,-0.0631,-0.0633,-0.0643,-0.065,-0.0653,-0.0702,-0.065,-0.0652,-0.0653,-0.0654,-0.0797,-0.0799,0,0,0,0,0,0,-0.0622,-0.0624,-0.0671,-0.0672,-0.0627,-0.0636,-0.0637,-0.065,-0.0651,-0.0649,-0.0635,-0.063,-0.0647,-0.065,-0.0653,-0.072,-0.0652,-0.0655,-0.0656,-0.0795,-0.0797,-0.08,0,0,0,0,0,0,-0.0621,-0.0627,-0.0671,-0.0647,-0.0651,-0.0639,-0.0655,-0.0652,-0.066,-0.0651,-0.0648,-0.0645,-0.0646,-0.0649,-0.0689,-0.072,-0.0656,-0.0658,-0.0792,-0.0796,-0.0799,-0.0856,0,0,0,0,0,0,-0.0619,-0.0626,-0.0649,-0.0648,-0.0653,-0.0707,-0.0657,-0.0654,-0.0664,-0.0659,-0.066,-0.0659,-0.0644,-0.0685,-0.0691,-0.0722,-0.066,-0.0789,-0.0794,-0.0798,-0.0851,-0.0861,-0.0869,0,0,0,0,0,-0.0617,-0.0666,-0.0651,-0.0657,-0.0681,-0.0709,-0.0711,-0.0694,-0.0667,-0.0689,-0.0683,-0.0659,-0.0716,-0.069,-0.0696,-0.0728,-0.0787,-0.0792,-0.0797,-0.0847,-0.0859,-0.0869,0,0,0,0,0,0,-0.0672,-0.0665,-0.0648,-0.0698,-0.0704,-0.07,-0.0728,-0.0707,-0.0721,-0.0716,-0.0693,-0.0694,-0.0737,-0.0736,-0.0708,-0.0784,-0.0747,-0.0753,-0.0782,-0.0793,-0.0802,-0.08,-0.0662,0,0,0,0,0,-0.069,-0.0713,-0.0706,-0.075,-0.0754,-0.0741,-0.0752,-0.0737,-0.0743,-0.0745,-0.0742,-0.0749,-0.0767,-0.0781,-0.0798,-0.0851,-0.0849,-0.0876,-0.0885,-0.0892,-0.0898,-0.0923,-0.0934,-0.0817,-0.0817,-0.0816,0,0,-0.0728,-0.0727,-0.0743,-0.0761,-0.0764,-0.0787,-0.0743,-0.0771,-0.0787,-0.075,-0.0785,-0.0784,-0.0789,-0.0835,-0.0855,-0.0836,-0.093,-0.0899,-0.0905,-0.0906,-0.093,-0.0941,-0.0951,-0.082,-0.0819,-0.0819,0,0,-0.0807,-0.081,-0.0846,-0.0849,-0.0853,-0.0844,-0.0852,-0.0851,-0.0848,-0.0884,-0.0855,-0.0875,-0.0909,-0.0913,-0.0919,-0.0998,-0.0975,-0.1004,-0.1051,-0.1076,-0.1085,-0.1093,-0.1119,-0.1129,-0.101,-0.101,-0.1011,0,-0.0853,-0.0887,-0.0867,-0.0895,-0.0903,-0.0869,-0.0905,-0.0909,-0.092,-0.0926,-0.0905,-0.0944,-0.0946,-0.0991,-0.1009,-0.1017,-0.1025,-0.1004,-0.1085,-0.1093,-0.11,-0.1125,-0.1135,-0.1014,-0.1013,-0.1013,-0.1013,0,-0.0942,-0.0966,-0.0995,-0.1004,-0.1015,-0.1048,-0.1031,-0.1045,-0.1029,-0.1022,-0.1057,-0.1058,-0.1073,-0.1083,-0.1069,-0.1125,-0.1113,-0.1089,-0.1051,-0.1115,-0.1137,-0.1147,-0.1019,-0.1017,-0.1016,-0.1016,0,0,-0.1058,-0.1053,-0.1064,-0.1066,-0.1068,-0.1086,-0.1116,-0.113,-0.1141,-0.1149,-0.1172,-0.1201,-0.1178,-0.1185,-0.1171,-0.1193,-0.1252,-0.1166,-0.1166,-0.118,-0.1312,-0.1328,-0.134,-0.1238,-0.1239,-0.1241,-0.131,0,-0.1134,-0.1184,-0.1165,-0.1216,-0.1236,-0.1203,-0.1229,-0.1232,-0.1226,-0.1242,-0.1234,-0.1254,-0.1223,-0.1227,-0.1248,-0.1241,-0.1278,-0.1236,-0.1258,-0.1259,-0.1255,-0.1352,-0.137,-0.1436,-0.1319,-0.1321,-0.1322,0,-0.123,-0.1239,-0.1292,-0.1287,-0.1295,-0.1318,-0.1328,-0.1345,-0.1347,-0.134,-0.1348,-0.1328,-0.1355,-0.1318,-0.1355,-0.1327,-0.1335,-0.1332,-0.1335,-0.1334,-0.1293,-0.1352,-0.1457,-0.1466,-0.1336,-0.1335,-0.1334,0,-0.1305,-0.1332,-0.1366,-0.1369,-0.1365,-0.1382,-0.1381,-0.1381,-0.139,-0.1399,-0.1404,-0.1417,-0.1424,-0.1434,-0.1417,-0.1392,-0.1456,-0.1418,-0.145,-0.145,-0.1464,-0.1463,-0.1569,-0.1472,-0.1472,-0.1472,-0.1472,0,-0.1391,-0.1424,-0.1399,-0.142,-0.1455,-0.1433,-0.1469,-0.1464,-0.1464,-0.1483,-0.1456,-0.1475,-0.1453,-0.1469,-0.1456,-0.1487,-0.1491,-0.1485,-0.1481,-0.1487,-0.1487,-0.149,-0.1485,-0.1474,-0.1474,-0.1473,-0.1473,0,-0.1481,-0.1467,-0.1501,-0.1493,-0.1492,-0.1518,-0.1512,-0.153,-0.1521,-0.1545,-0.1549,-0.1535,-0.1552,-0.1537,-0.1554,-0.1545,-0.1586,-0.1576,-0.1584,-0.1581,-0.1613,-0.1609,-0.1723,-0.1736,-0.1633,-0.1634,-0.1635,0,-0.1536,-0.156,-0.1555,-0.1565,-0.1565,-0.1582,-0.159,-0.1569,-0.1579,-0.1582,-0.16,-0.1614,-0.1625,-0.1653,-0.1644,-0.1656,-0.1646,-0.1685,-0.1647,-0.1651,-0.1643,-0.1641,-0.1642,-0.1692,-0.1693,-0.1694,-0.1695,0,-0.1634,-0.1625,-0.1638,-0.1647,-0.1657,-0.1664,-0.1669,-0.1678,-0.1657,-0.1669,-0.1685,-0.1693,-0.1709,-0.1723,-0.1732,-0.1731,-0.1709,-0.1707,-0.1714,-0.1719,-0.1722,-0.1718,-0.1603,-0.1704,-0.1703,-0.1702,-0.1702,-0.1701,-0.1707,-0.1726,-0.1724,-0.1738,-0.1739,-0.1743,-0.1759,-0.1751,-0.1764,-0.1774,-0.1762,-0.1781,-0.1781,-0.179,-0.1791,-0.1806,-0.1789,-0.1801,-0.1804,-0.1806,-0.181,-0.1721,-0.1808,-0.1808,-0.1807,-0.1807,-0.1807,0,-0.1801,-0.1798,-0.1811,-0.1817,-0.1828,-0.1806,-0.1809,-0.182,-0.1837,-0.1838,-0.1848,-0.1866,-0.1879,-0.187,-0.1881,-0.1894,-0.1884,-0.1897,-0.1895,-0.1895,-0.1825,-0.1816,-0.1905,-0.1905,-0.1905,-0.1905,-0.1905,-0.1905,-0.1852,-0.1881,-0.1871,-0.19,-0.1897,-0.1914,-0.1918,-0.1921,-0.1922,-0.1942,-0.1952,-0.1946,-0.1943,-0.1953,-0.1964,-0.1961,-0.1965,-0.1982,-0.1975,-0.191,-0.19,-0.1891,-0.1882,-0.1983,-0.1983,-0.2043,-0.2043,-0.2044]},{"header":{"parameterUnit":"m.s-1","parameterCategory":1,"la1":30.2991,"la2":30.254,"lo1":-89.0895,"lo2":-89.0444,"dy":0.0017,"dx":0.0017,"nx":28,"ny":28,"refTime":"2025-03-12T03:00:00:Z","depth":0,"parameterNumber":3,"parameterNumberName":"V-component_of_WINDS"},"data":[0,0,0,0,0,0,0,0,0,0,0,0,0,0,0,0,0,0,0,0,0,0,0,0,0,0,0,0,0,0,0,0,0,0,0,0,0,0,0,0,0,0,0,0,0,0,0,0,0,0,0,0,0,0,0,0,0,0,4.0559,4.056,0,4.0631,4.0632,4.0632,4.0697,4.0698,4.0699,4.0699,4.0766,4.0767,4.0768,0,0,0,0,0,0,0,0,0,0,0,0,0,4.0473,4.0474,4.0559,4.056,4.0561,4.0631,4.0632,4.0633,4.0697,4.0698,4.0699,4.07,4.0766,4.0767,4.0768,0,0,0,0,0,0,0,0,0,0,0,0,0,4.0524,4.0475,4.0559,4.0602,4.0606,4.0631,4.0632,4.0633,4.0697,4.0698,4.0699,4.07,4.0765,4.0767,4.0768,4.0754,0,0,4.0773,4.0774,0,0,0,0,0,0,0,0,4.0521,4.0527,4.0594,4.0599,4.0604,4.0656,4.0626,4.0673,4.0696,4.0662,4.0699,4.0701,4.0728,4.0733,4.0743,4.0758,4.076,4.0773,4.0774,4.0775,4.0775,0,0,0,0,0,0,0,4.0517,4.0524,4.0587,4.0595,4.0601,4.0616,4.0624,4.0635,4.0687,4.0665,4.067,4.0678,4.0731,4.0742,4.0745,4.0761,4.0773,4.0775,4.0776,4.0776,4.077,4.0769,0,0,0,0,0,0,4.0508,4.0521,4.0585,4.0589,4.0565,4.0616,4.0626,4.0638,4.0687,4.0696,4.0677,4.0681,4.0739,4.0744,4.0748,4.0737,4.0775,4.0776,4.0777,4.0771,4.077,4.0769,0,0,0,0,0,0,4.0506,4.0513,4.0582,4.0557,4.0567,4.0616,4.063,4.0639,4.065,4.0697,4.0706,4.0679,4.074,4.0746,4.0753,4.074,4.0777,4.0778,4.0773,4.0771,4.0769,4.0713,0,0,0,0,0,0,4.0503,4.0512,4.0508,4.0556,4.0568,4.0587,4.0629,4.0639,4.0653,4.0659,4.0701,4.0709,4.0741,4.0751,4.0755,4.0743,4.078,4.0774,4.0772,4.077,4.0717,4.071,4.0704,0,0,0,0,0,4.05,4.0487,4.0508,4.0515,4.0564,4.0587,4.0593,4.0633,4.0652,4.0648,4.0678,4.0707,4.0741,4.0751,4.0756,4.0744,4.0775,4.0772,4.077,4.0719,4.0711,4.0705,0,0,0,0,0,0,4.0433,4.0494,4.0517,4.052,4.0548,4.0597,4.0594,4.0622,4.0643,4.0647,4.0693,4.0702,4.0705,4.0725,4.0736,4.0735,4.0762,4.076,4.0722,4.0714,4.0708,4.0703,4.0781,0,0,0,0,0,4.0419,4.0434,4.0486,4.0484,4.0497,4.0543,4.0554,4.0582,4.0612,4.0623,4.0654,4.068,4.0697,4.0707,4.0724,4.072,4.073,4.0714,4.0708,4.0703,4.0701,4.0702,4.0696,4.0761,4.0761,4.0761,0,0,4.039,4.0425,4.0431,4.0471,4.0496,4.051,4.0552,4.0563,4.0574,4.0624,4.0635,4.0658,4.069,4.0692,4.0695,4.0709,4.0686,4.07,4.0695,4.0697,4.0699,4.0693,4.0688,4.0759,4.0759,4.0759,0,0,4.0343,4.0371,4.0374,4.0399,4.0438,4.0469,4.0469,4.0515,4.0533,4.0545,4.0584,4.0596,4.0623,4.0645,4.066,4.0625,4.0653,4.0629,4.0597,4.0598,4.0593,4.0589,4.0577,4.0573,4.0627,4.0627,4.0627,0,4.0301,4.0325,4.037,4.0382,4.0398,4.0448,4.0451,4.0472,4.0513,4.0523,4.0539,4.0577,4.0601,4.0611,4.0603,4.0612,4.0614,4.0625,4.059,4.0586,4.0583,4.0573,4.0569,4.0624,4.0625,4.0625,4.0625,0,4.0272,4.0288,4.0285,4.0328,4.0344,4.035,4.0396,4.0407,4.0434,4.0463,4.0475,4.0507,4.0533,4.0538,4.0563,4.0551,4.0559,4.0582,4.061,4.0573,4.0565,4.0561,4.062,4.0621,4.0622,4.0623,0,0,4.0184,4.0254,4.0253,4.0274,4.0321,4.0334,4.0342,4.0371,4.038,4.0407,4.0415,4.0439,4.0462,4.0478,4.0507,4.0507,4.048,4.0531,4.0532,4.0521,4.047,4.0453,4.0448,4.0499,4.0498,4.0497,4.0468,0,4.0146,4.0168,4.0211,4.0218,4.0234,4.0283,4.029,4.032,4.0347,4.0364,4.0393,4.041,4.0438,4.0449,4.0452,4.0482,4.047,4.0485,4.0506,4.0507,4.0498,4.0443,4.0425,4.0395,4.0464,4.0464,4.0463,0,4.0105,4.0133,4.0143,4.0193,4.0201,4.0207,4.0239,4.0254,4.0288,4.0308,4.0329,4.0361,4.0372,4.0398,4.0414,4.0424,4.0435,4.0451,4.0451,4.0455,4.0483,4.0446,4.0386,4.0382,4.0458,4.0459,4.0459,0,4.0042,4.0081,4.0094,4.011,4.0167,4.0171,4.0194,4.023,4.0246,4.0272,4.0283,4.0308,4.0323,4.0342,4.038,4.0395,4.0392,4.0421,4.0409,4.0408,4.0407,4.0406,4.0348,4.0412,4.0412,4.0412,4.0412,0,3.9995,4.0,4.0067,4.0074,4.0081,4.0129,4.0134,4.0162,4.0194,4.0207,4.0249,4.0259,4.0309,4.0326,4.0355,4.0365,4.037,4.0387,4.0395,4.0384,4.0382,4.0392,4.0396,4.0411,4.0411,4.0411,4.0411,0,3.9926,3.9971,3.9988,4.0042,4.0056,4.0058,4.0104,4.0113,4.0144,4.016,4.0166,4.0215,4.0236,4.0277,4.0308,4.0329,4.0332,4.0346,4.0322,4.0327,4.0314,4.0315,4.0261,4.0257,4.0321,4.0321,4.032,0,3.9894,3.9899,3.9956,3.9969,3.9993,4.0012,4.003,4.0078,4.0093,4.0135,4.0138,4.0164,4.0187,4.0219,4.0256,4.0281,4.0296,4.0275,4.03,4.0289,4.0297,4.0297,4.0298,4.027,4.0269,4.0268,4.0267,0,3.9833,3.9856,3.9881,3.9914,3.9934,3.9962,3.9991,3.9999,4.0053,4.0068,4.0093,4.0111,4.0146,4.0171,4.0202,4.0225,4.0255,4.026,4.0259,4.0248,4.0235,4.0243,4.0308,4.0261,4.0261,4.0262,4.0262,4.0263,3.9783,3.9791,3.9833,3.986,3.9888,3.9915,3.9927,3.9961,3.9984,4.0018,4.0044,4.0067,4.0102,4.0148,4.0169,4.0186,4.0201,4.0198,4.0198,4.0197,4.0194,4.0231,4.0192,4.0192,4.0192,4.0192,4.0193,0,3.9725,3.9756,3.978,3.9822,3.9843,3.9873,3.9908,3.9923,3.9944,3.9976,3.9999,4.0028,4.0053,4.0093,4.0121,4.0127,4.0142,4.0133,4.0134,4.0139,4.0178,4.0177,4.0121,4.0121,4.0121,4.0121,4.0121,4.0121,3.9698,3.9715,3.9743,3.9774,3.9804,3.9829,3.9847,3.9872,3.9898,3.993,3.9953,3.998,4.0015,4.0046,4.007,4.0081,4.009,4.0077,4.0092,4.0129,4.0135,4.0142,4.0141,4.0078,4.0078,4.0052,4.0051,4.0051]}]]